Location: Molveno
(46.1500°N, 10.9667°E)
Time: 08:10:43
(UTC+00:00)

Cosmos 1844 Rocket - Pass Details

Date: 05 July 2020
Orbit: 826 x 843 km, 71.0° (Epoch: 05 August)

Event Time Altitude Azimuth Distance (km) Brightness Sun altitude
Rises 21:06:25 0° 326° (NW) 3,375 7.8 -14.7°
Reaches altitude 10° 21:09:02 10° 318° (NW) 2,437 6.4 -15.0°
Maximum altitude 21:14:02 35° 254° (WSW) 1,313 3.8 -15.4°
Enters shadow 21:18:14 14° 195° (SSW) 2,164 4.4 -15.8°
